Regional Weather Roundup
Issued by NWS Cleveland, OH

Home | Current Version | Previous Version | Text Only | Print | Product List | Glossary Off
Versions: 1 2 3 4 5 6 7 8 9 10 11 12 13 14 15 16 17 18 19 20 21 22 23 24 25 26 27 28 29 30 31 32 33 34 35 36 37 38 39 40 41 42 43 44 45 46 47 48 49 50

000
ASUS41 KCLE 171702
RWRCLE
OHIO REGIONAL WEATHER ROUNDUP
NATIONAL WEATHER SERVICE CLEVELAND, OH
1200 PM EST WED DEC 17 2014

NOTE: "FAIR" INDICATES FEW OR NO CLOUDS BELOW 12,000 FEET WITH NO
SIGNIFICANT WEATHER AND/OR OBSTRUCTIONS TO VISIBILITY.

OHZ001>008-015>018-024>027-034-035-043-044-171800-
   NORTHWEST OHIO

CITY           SKY/WX    TMP DP  RH WIND       PRES   REMARKS
DEFIANCE       NOT AVBL
FINDLAY        CLOUDY    32  24  72 W20       30.14F WCI  20
TOLEDO EXPRESS CLOUDY    30  23  75 W18       30.13F WCI  18
TOLEDO EXEC    CLOUDY    32  23  69 W18       30.13F WCI  20
LIMA             N/A    N/A N/A N/A MISG      30.17S
$$

OHZ009>014-019>023-028>033-038-089-171800-
   NORTHEAST OHIO

CITY           SKY/WX    TMP DP  RH WIND       PRES   REMARKS
CLE-HOPKINS    CLOUDY    33  25  72 W18G26    30.11S WCI  22
CLE-LAKEFRONT  CLOUDY    34  26  72 W24G33    30.08S WCI  21
CUY CO. ARPT   CLOUDY    36  27  69 W16G28    30.07S
LORAIN-ELYRIA  CLOUDY    32  25  75 W16G26    30.11S WCI  21
ASHTABULA      CLOUDY    32  29  88 W17G28    30.04S FOG     WCI  21
AKRON-CANTON   CLOUDY    33  25  72 W18G26    30.07F WCI  22
WOOSTER        CLOUDY    31  25  78 W18G30    30.10F WCI  19
MANSFIELD      CLOUDY    30  24  78 W14       30.10F WCI  19
YOUNGSTOWN     FLURRIES  32  26  78 W12       30.04S WCI  23
$$

OHZ042-051>053-060>062-070>072-077>081-171800-
  SOUTHWEST OHIO

CITY           SKY/WX    TMP DP  RH WIND       PRES   REMARKS
CINC-COVINGTON CLOUDY    31  23  72 W10       30.24  WCI  22
CINC-LUNKEN    CLOUDY    32  26  78 W8        30.27F WCI  25
HAMILTON       CLOUDY    32  25  75 W9        30.26F WCI  24
DAYTON         CLOUDY    30  24  78 W16       30.21F WCI  19
WRIGHT-PAT AFB CLOUDY    30  25  79 W14       30.21F WCI  20
DAYTON GENERAL CLOUDY    30  23  75 W9        30.21F WCI  22
WILMINGTON     CLOUDY    30  23  75 W14       30.21F WCI  19
$$

OHZ036-037-039>041-045>050-054>059-063>069-073>076-082>088-171800-
  CENTRAL AND SOUTHEAST OHIO

CITY           SKY/WX    TMP DP  RH WIND       PRES   REMARKS
COLUMBUS       CLOUDY    32  24  72 W14       30.18F WCI  22
OSU AIRPORT    CLOUDY    32  23  69 W15       30.17F WCI  22
BOLTON FIELD   CLOUDY    30  25  80 W13       30.19F WCI  20
RICKENBACK AFB CLOUDY    32  26  78 W13G22    30.19F WCI  22
NEWARK         CLOUDY    33  24  69 W12       30.16F WCI  24
MARION         CLOUDY    31  24  75 W14       30.15F WCI  21
LANCASTER      CLOUDY    33  25  72 NW8       30.18F WCI  26
ZANESVILLE     CLOUDY    32  23  69 W15       30.16F WCI  22
NEW PHILLY     CLOUDY    34  27  75 W14       30.13S WCI  25
$$


USA.gov is the U.S. government's official web portal to all federal, state and local government web resources and services.